{"data":{"norad_id":68952,"epoch":"2026-05-25T04:00:03.998880Z","epoch_age_seconds":54445,"freshness":"FRESH","line1":"1 68952U 26099B   26145.16671295 -.00746523  00000+0 -14294-1 0  9990","line2":"2 68952  53.1596 270.7490 0001438  79.8654 240.5074 15.49783082  4963","mean_motion":15.49783082,"eccentricity":0.0001438,"inclination_deg":53.1596,"raan_deg":270.749,"arg_perigee_deg":79.8654,"mean_anomaly_deg":240.5074,"bstar":-0.014294,"rev_number":496,"period_min":92.916229162966,"perigee_km":416.38289825014,"apogee_km":418.33728321343,"semimajor_km":6795.4970907318,"source":"CELESTRAK","updated_at":"2026-05-25T13:38:22.071885Z"}}